Tracking 31028 objects as of 17-Jul-2025
HD Live streaming from Space Station
objects crossing your sky now

CZ-2C DEB

Track CZ-2C DEB now!
10-day predictions


NORAD ID: 39204
Int'l Code: 2013-035C
Perigee: 577.4 km
Apogee: 650.7 km
Inclination: 98.2 °
Period: 96.8 minutes
Semi major axis: 6985 km
RCS: Unknown
Launch date: July 15, 2013
Source: People's Republic of China (PRC)
Launch site: Jiuquan Satellite Launch Center, China (JSC)

Note: This is SATELLITE DEBRIS
Your satellite tracking list
Your tracking list is empty




NASA's NSSDC Master Catalog

Two Line Element Set (TLE):
1 39204U 13035C   25197.70985363  .00008349  00000-0  91211-3 0  9996
2 39204  98.2354  94.4549 0052447 300.8199  58.7860 14.87139354639511
Source of the keplerian elements: AFSPC